Tracking 19717 objects as of 25-Jun-2019
HD Live streaming from Space Station
objects crossing your sky now

METEOR 2-17 DEB

Track METEOR 2-17 DEB now!
10-day predictions


NORAD ID: 31398
Int'l Code: 1988-005T
Perigee: 905.8 km
Apogee: 947.4 km
Inclination: 82.5 °
Period: 103.4 minutes
Semi major axis: 7297 km
RCS: 0.0054 m2 (small)
Launch date: January 30, 1988
Source: Commonwealth of Independent States (former USSR) (CIS)
Launch site: PLESETSK MISSILE AND SPACE COMPLEX (PKMTR)

Note: This is SATELLITE DEBRIS
aabbcc
Your satellite tracking list
Your tracking list is empty




NASA's NSSDC Master Catalog

Two Line Element Set (TLE):
1 31398U 88005T   19173.72554902  .00000362  00000-0  26850-3 0  9995
2 31398  82.5394 180.8887 0028508 343.7395  16.2853 13.92622160649527
Source of the keplerian elements: AFSPC